Location: Adrasan
(36.3319°N, 30.4314°E)
Time: 12:59:07
(UTC+00:00)

Cosmos 1624 Rocket - Pass Details

Date: 09 December 2023
Orbit: 754 x 782 km, 74.0° (Epoch: 20 February)

Event Time Altitude Azimuth Distance (km) Brightness Sun altitude
Rises 15:38:38 0° 201° (SSW) 3,215 7.9 -11.0°
Reaches altitude 10° 15:41:01 10° 203° (SSW) 2,289 7.1 -11.5°
Maximum altitude 15:46:12 74° 288° (WNW) 790 4.2 -12.5°
Drops below altitude 10° 15:51:23 10° 14° (NNE) 2,289 6.2 -13.4°
Enters shadow 15:53:15 - 16° (NNE) 3,017 6.8 -13.8°
